Regional Weather Roundup
Issued by NWS New Orleans/Baton Rouge, LA

Home | Current Version | Previous Version | Text Only | Print | Product List | Glossary On
Versions: 1 2 3 4 5 6 7 8 9 10 11 12 13 14 15 16 17 18 19 20 21 22 23 24 25 26 27 28 29 30 31 32 33 34 35 36 37 38 39 40 41 42 43 44 45 46 47 48 49 50
000
ASUS44 KLIX 290111
RWRLIX
NEW ORLEANS REGIONAL WEATHER ROUNDUP
NATIONAL WEATHER SERVICE NEW ORLEANS LA
800 PM CDT SUN AUG 28 2016

NOTE: "FAIR" INDICATES FEW OR NO CLOUDS BELOW 12,000 FEET WITH NO
      SIGNIFICANT WEATHER AND/OR OBSTRUCTIONS TO VISIBILITY.
      SKY/WX - SKY CONDITION AND SIGNIFICANT WEATHER.
      TMP - AIR TEMPERATURE.     DP    - DEWPOINT TEMPERATURE.
      RH  - RELATIVE HUMIDITY.   PRES  - PRESSURE.
      HI  - HEAT INDEX.          WCI   - WIND CHILL INDEX.

*  THESE STATIONS ARE NOT NWS OR FAA STATIONS AND ARE NOT UNDER
   NWS QUALITY CONTROL.

LAZ038-040-048-061>063-065>067-069-290200-
SOUTHEAST LOUISIANA

CITY           SKY/WX    TMP DP  RH WIND       PRES   REMARKS
N.O. AUDUBON   NOT AVBL
N.O. INTL ARPT MOCLDY    82  73  74 E9        29.93F
N.O. LAKEFRONT CLOUDY    80  74  81 E6        29.94F
N.O. DOWNTOWN*   N/A     80  74  81 CALM      29.94F
RESERVE*         N/A     80  76  88 NE6       29.94S
SLIDELL        LGT RAIN  77  76  96 CALM      29.94F
BATON ROUGE    CLOUDY    75  74  96 NE6       29.95S
BOOTHVILLE     CLOUDY    79  74  84 E5        29.92F
BELLE CHASSE   MOCLDY    77  76  96 NE7       29.93F
BOGALUSA*        N/A     78  74  86 CALM      29.99S
GALLIANO*      MOCLDY    80  74  81 E6        29.92F
NEW ROADS*     DRIZZLE   74  71  88 NE5       29.96S
GONZALES*        N/A     78  75  90 NE5       29.93F
HAMMOND*       CLOUDY    77  72  83 CALM      29.95F
HOUMA*         CLEAR     79  74  86 E7        29.93S
PORT FOURCHON* CLEAR     81  73  78 E13       29.91S

$$

MSZ070-080>082-290200-
SOUTHERN MISSISSIPPI

CITY           SKY/WX    TMP DP  RH WIND       PRES   REMARKS
MCCOMB         CLOUDY    77  74  90 NW3       29.99F
GULFPORT       CLOUDY    78  77  96 N6        29.95F
BILOXI         CLOUDY    76  76 100 NE3       29.96R
PASCAGOULA     CLOUDY    74  74 100 CALM      29.95F
STENNIS ARPT*  PTCLDY    75  72  88 CALM      29.96F

$$

COASTAL OBSERVATIONS
LAKE AND NEARSHORE STATIONS

STATION/POSITION TIME  TEMP    WIND        PRES    WAVE
                       AIR SEA DIR/SP/G            HT/PER
                 (UTC) (F)     (DEG/KT/KT) (MB)    (FT/S)
PASCAGOULA       0000   75      10/  6/  7 1014.1
WAVELAND YACHT   0000   79 84  200/  4/  5 1014.7
GRAND ISLE       0000   81 86   90/  8/ 14 1013.6
SOUTHWEST PASS   0000           80/ 16/ 18   N/A
NEW CANAL        0000   80 85   80/  6/  9 1013.6
SHELL BEACH      0000   79 85   90/  4/  6 1014.4

OFFSHORE STATIONS

STATION/POSITION TIME  TEMP    WIND        PRES    WAVE
                       AIR SEA DIR/SP/G            HT/PER
                 (UTC) (F)     (DEG/KT/KT) (MB)    (FT/S)
64 S DAUPHIN ISL 0000   81 86   30/  8/  8 1013.3

$$




USA.gov is the U.S. government's official web portal to all federal, state and local government web resources and services.